Harbor Springs, MI

7:21 PM EDT on July 25, 2017 (GMT -0400)
Harbor Springs

Weather History for KMGN - March, 2013

Change the Weather History Date:

Friday, March 8, 2013

  Actual Average (KPLN) Record (KPLN)
Temperature  
Mean Temperature 26 °F -  
Max Temperature 35 °F 34 °F 61 °F (2016)
Min Temperature 18 °F 8 °F -26 °F (1967)
Degree Days  
Heating Degree Days 38    
Moisture  
Dew Point 22 °F    
Average Humidity 83    
Maximum Humidity 93    
Minimum Humidity 65    
Precipitation  
Precipitation 0.00 in - - ()
Sea Level Pressure  
Sea Level Pressure 30.43 in    
Wind  
Wind Speed 1 mph (WSW)    
Max Wind Speed 9 mph    
Max Gust Speed -    
Visibility 10 miles    
Events      
Averages and records for this station are not official NWS values.
T = Trace of Precipitation, MM = Missing Value Source: NWS Daily Summary

Daily Weather History Graph

Daily Weather History Graph

Search for Another Location

Airport or City:

Trip Planner

Search our weather history database for the weather conditions in past years. The results will help you decide how hot, cold, wet, or windy it might be!

Date:

Astronomy

Mar. 08, 2013 Rise Set
Actual Time 7:04 AM EST 6:36 PM EST
Civil Twilight 6:35 AM EST 7:06 PM EST
Nautical Twilight 6:01 AM EST 7:40 PM EST
Astronomical Twilight 5:26 AM EST 8:15 PM EST
Moon 4:56 AM EST (3/8) 3:23 PM EST (3/8)
Length of Visible Light 12h 30m
Length of Day
11h 31m
Waning Crescent, 12% of the Moon is Illuminated
Mar 8
Waning Crescent
Mar 11
New
Mar 19
First Quarter
Mar 27
Full
Apr 3
Last Quarter

Hourly Weather History & Observations

Time (EST) Temp. Windchill Dew Point Humidity Pressure Visibility Wind Dir Wind Speed Gust Speed Precip Events Conditions
12:15 AM 25.0 °F - 20.7 °F 84% 30.43 in 10.0 mi Calm Calm - N/A   Mostly Cloudy
12:34 AM 23.4 °F - 19.0 °F 84% 30.43 in 10.0 mi Calm Calm - N/A   Overcast
12:54 AM 23.0 °F - 19.2 °F 85% 30.43 in 10.0 mi Calm Calm - N/A   Overcast
1:15 AM 22.6 °F - 18.9 °F 85% 30.43 in 10.0 mi Calm Calm - N/A   Mostly Cloudy
1:34 AM 21.2 °F - 17.8 °F 87% 30.43 in 10.0 mi Calm Calm - N/A   Scattered Clouds
1:54 AM 20.3 °F - 17.1 °F 87% 30.44 in 10.0 mi Calm Calm - N/A   Clear
2:15 AM 19.8 °F - 16.7 °F 88% 30.44 in 10.0 mi Calm Calm - N/A   Clear
2:34 AM 18.7 °F - 15.8 °F 89% 30.44 in 10.0 mi Calm Calm - N/A   Clear
2:54 AM 18.1 °F - 15.4 °F 89% 30.44 in 10.0 mi Calm Calm - N/A   Clear
3:15 AM 18.0 °F - 15.4 °F 90% 30.44 in 10.0 mi Calm Calm - N/A   Clear
3:34 AM 18.0 °F - 15.8 °F 91% 30.45 in 10.0 mi Calm Calm - N/A   Clear
3:54 AM 18.0 °F - 15.8 °F 91% 30.45 in 10.0 mi Calm Calm - N/A   Mostly Cloudy
4:15 AM 18.0 °F - 15.8 °F 91% 30.45 in 10.0 mi Calm Calm - N/A   Mostly Cloudy
4:34 AM 18.0 °F - 15.6 °F 91% 30.45 in 10.0 mi Calm Calm - N/A   Overcast
4:54 AM 19.6 °F - 17.2 °F 91% 30.45 in 10.0 mi Calm Calm - N/A   Overcast
5:15 AM 20.5 °F - 17.6 °F 89% 30.45 in 10.0 mi Calm Calm - N/A   Overcast
5:34 AM 19.6 °F - 17.1 °F 90% 30.46 in 10.0 mi Calm Calm - N/A   Overcast
5:54 AM 19.4 °F - 17.1 °F 91% 30.46 in 10.0 mi Calm Calm - N/A   Overcast
6:14 AM 19.8 °F - 17.1 °F 89% 30.46 in 10.0 mi Calm Calm - N/A   Overcast
6:34 AM 20.3 °F - 18.0 °F 91% 30.47 in 10.0 mi Calm Calm - N/A   Overcast
6:54 AM 20.8 °F - 18.3 °F 90% 30.47 in 10.0 mi Calm Calm - N/A   Overcast
7:14 AM 22.1 °F - 19.2 °F 89% 30.47 in 10.0 mi Calm Calm - N/A   Overcast
7:34 AM 23.0 °F - 19.8 °F 87% 30.47 in 10.0 mi Calm Calm - N/A   Overcast
7:54 AM 21.4 °F - 18.3 °F 88% 30.48 in 10.0 mi Calm Calm - N/A   Overcast
8:14 AM 22.1 °F - 19.2 °F 89% 30.48 in 10.0 mi Calm Calm - N/A   Overcast
8:34 AM 23.9 °F - 20.7 °F 87% 30.48 in 10.0 mi Calm Calm - N/A   Overcast
8:54 AM 25.5 °F - 21.9 °F 86% 30.49 in 10.0 mi Calm Calm - N/A   Overcast
9:14 AM 28.0 °F 24.2 °F 23.5 °F 83% 30.49 in 10.0 mi WSW 3.5 mph - N/A   Overcast
9:34 AM 27.5 °F - 22.6 °F 82% 30.49 in 10.0 mi Calm Calm - N/A   Overcast
9:54 AM 28.0 °F - 23.0 °F 81% 30.49 in 10.0 mi Calm Calm - N/A   Overcast
10:14 AM 28.2 °F - 22.8 °F 80% 30.49 in 10.0 mi Calm Calm - N/A   Overcast
10:34 AM 28.4 °F - 22.8 °F 80% 30.48 in 10.0 mi Calm Calm - N/A   Overcast
10:55 AM 30.6 °F 27.1 °F 24.6 °F 79% 30.48 in 10.0 mi SW 3.5 mph - N/A   Overcast
11:14 AM 31.1 °F 26.4 °F 25.0 °F 78% 30.48 in 10.0 mi SSW 4.6 mph - N/A   Overcast
11:34 AM 32.9 °F - 26.6 °F 78% 30.47 in 10.0 mi Calm Calm - N/A   Overcast
11:55 AM 32.9 °F 29.8 °F 26.1 °F 76% 30.46 in 10.0 mi SW 3.5 mph - N/A   Scattered Clouds
12:14 PM 32.9 °F - 25.7 °F 75% 30.45 in 10.0 mi Calm Calm - N/A   Clear
12:34 PM 32.9 °F 29.8 °F 25.7 °F 75% 30.45 in 10.0 mi West 3.5 mph - N/A   Clear
12:55 PM 34.3 °F 30.2 °F 26.4 °F 73% 30.44 in 10.0 mi WSW 4.6 mph - N/A   Clear
1:14 PM 33.6 °F 28.4 °F 25.9 °F 73% 30.44 in 10.0 mi WSW 5.8 mph - N/A   Clear
1:34 PM 34.2 °F 29.0 °F 26.6 °F 74% 30.43 in 10.0 mi WSW 5.8 mph - N/A   Clear
1:55 PM 35.2 °F 31.2 °F 26.2 °F 70% 30.42 in 10.0 mi West 4.6 mph - N/A   Clear
2:14 PM 35.2 °F 29.5 °F 26.2 °F 70% 30.42 in 10.0 mi WSW 6.9 mph - N/A   Clear
2:34 PM 35.2 °F 29.5 °F 25.7 °F 68% 30.41 in 10.0 mi WSW 6.9 mph - N/A   Clear
2:55 PM 35.2 °F 30.3 °F 26.8 °F 71% 30.41 in 10.0 mi SW 5.8 mph - N/A   Clear
3:14 PM 32.9 °F 25.9 °F 26.2 °F 76% 30.42 in 10.0 mi WSW 8.1 mph - N/A   Clear
3:34 PM 34.0 °F 26.6 °F 26.6 °F 74% 30.41 in 10.0 mi WSW 9.2 mph - N/A   Clear
3:55 PM 35.2 °F 29.5 °F 26.6 °F 71% 30.41 in 10.0 mi WSW 6.9 mph - N/A   Clear
4:14 PM 35.1 °F 28.6 °F 25.7 °F 69% 30.41 in 10.0 mi WSW 8.1 mph - N/A   Clear
4:34 PM 32.9 °F 25.3 °F 22.3 °F 65% 30.40 in 10.0 mi WSW 9.2 mph - N/A   Clear
4:55 PM 32.9 °F 25.9 °F 23.9 °F 69% 30.40 in 10.0 mi SW 8.1 mph - N/A   Clear
5:14 PM 32.9 °F 25.3 °F 24.3 °F 71% 30.40 in 10.0 mi WSW 9.2 mph - N/A   Clear
5:34 PM 32.9 °F 27.5 °F 25.0 °F 73% 30.40 in 10.0 mi WSW 5.8 mph - N/A   Clear
5:55 PM 31.1 °F 25.4 °F 24.4 °F 76% 30.40 in 10.0 mi WSW 5.8 mph - N/A   Clear
6:14 PM 30.6 °F 25.8 °F 24.8 °F 79% 30.40 in 10.0 mi WSW 4.6 mph - N/A   Clear
6:34 PM 28.9 °F - 24.3 °F 83% 30.39 in 10.0 mi Calm Calm - N/A   Clear
6:55 PM 28.2 °F - 23.9 °F 84% 30.39 in 10.0 mi Calm Calm - N/A   Clear
7:14 PM 28.0 °F - 24.1 °F 85% 30.39 in 10.0 mi Calm Calm - N/A   Clear
7:34 PM 28.0 °F - 24.3 °F 86% 30.38 in 10.0 mi Calm Calm - N/A   Clear
7:55 PM 28.0 °F - 25.2 °F 89% 30.39 in 10.0 mi Calm Calm - N/A   Clear
8:14 PM 28.0 °F - 24.8 °F 88% 30.39 in 10.0 mi Calm Calm - N/A   Clear
8:34 PM 28.0 °F - 25.2 °F 89% 30.38 in 10.0 mi Calm Calm - N/A   Clear
8:55 PM 28.0 °F - 25.2 °F 89% 30.39 in 10.0 mi Calm Calm - N/A   Clear
9:14 PM 26.2 °F - 23.9 °F 91% 30.39 in 10.0 mi Calm Calm - N/A   Clear
9:34 PM 27.1 °F - 24.8 °F 91% 30.39 in 10.0 mi Calm Calm - N/A   Clear
9:55 PM 26.2 °F - 24.1 °F 92% 30.39 in 10.0 mi Calm Calm - N/A   Clear
10:14 PM 25.9 °F - 23.7 °F 92% 30.39 in 10.0 mi Calm Calm - N/A   Clear
10:34 PM 25.5 °F - 23.7 °F 93% 30.39 in 10.0 mi Calm Calm - N/A   Clear
10:54 PM 25.5 °F - 23.4 °F 92% 30.39 in 10.0 mi Calm Calm - N/A   Clear
11:14 PM 24.6 °F - 22.5 °F 91% 30.38 in 10.0 mi Calm Calm - N/A   Clear
11:34 PM 23.2 °F - 21.2 °F 92% 30.37 in 10.0 mi Calm Calm - N/A   Clear
11:54 PM 22.6 °F - 20.7 °F 92% 30.37 in 10.0 mi Calm Calm - N/A   Clear